Time,TemperatureF,DewpointF,PressureIn,WindDirection,WindDirectionDegrees,WindSpeedMPH,WindSpeedGustMPH,Humidity,HourlyPrecipIn,Conditions,Clouds,dailyrainin,SoftwareType,DateUTC
2013-03-01 00:00:00,39.0,27.1,29.78,NW,306,6.0,16.0,62,0.00,,---,0.00,VWS V14.01,2013-03-01 05:00:00,
2013-03-01 00:05:00,39.0,27.5,29.78,NW,323,7.0,11.0,63,0.00,,---,0.00,VWS V14.01,2013-03-01 05:05:00,
2013-03-01 00:06:00,39.0,27.1,29.78,NW,317,4.0,11.0,62,0.00,,---,0.00,VWS V14.01,2013-03-01 05:06:00,
2013-03-01 00:11:00,38.9,27.0,29.78,WNW,300,6.0,14.0,62,0.00,,---,0.00,VWS V14.01,2013-03-01 05:11:00,
2013-03-01 00:16:00,38.8,26.9,29.78,North,355,7.0,14.0,62,0.00,,---,0.00,VWS V14.01,2013-03-01 05:16:00,
2013-03-01 00:21:00,38.8,26.9,29.79,NW,314,4.0,14.0,62,0.00,,---,0.00,VWS V14.01,2013-03-01 05:21:00,
2013-03-01 00:26:00,38.7,27.2,29.79,NW,311,4.0,14.0,63,0.00,,---,0.00,VWS V14.01,2013-03-01 05:26:00,
2013-03-01 00:31:00,38.6,27.1,29.79,NW,311,2.0,2.0,63,0.00,,---,0.00,VWS V14.01,2013-03-01 05:31:00,
2013-03-01 00:36:00,38.5,27.0,29.79,NW,313,2.0,5.0,63,0.00,,---,0.00,VWS V14.01,2013-03-01 05:36:00,
2013-03-01 00:41:00,38.5,27.0,29.79,NW,307,9.0,10.0,63,0.00,,---,0.00,VWS V14.01,2013-03-01 05:41:00,
2013-03-01 00:46:00,38.6,27.1,29.80,NW,313,3.0,11.0,63,0.00,,---,0.00,VWS V14.01,2013-03-01 05:46:00,
2013-03-01 00:51:00,38.5,27.0,29.80,WNW,292,2.0,11.0,63,0.00,,---,0.00,VWS V14.01,2013-03-01 05:51:00,
2013-03-01 00:56:00,38.5,27.0,29.80,NNW,346,4.0,11.0,63,0.00,,---,0.00,VWS V14.01,2013-03-01 05:56:00,
2013-03-01 01:01:00,38.5,27.0,29.80,NW,313,4.0,6.0,63,0.00,,---,0.00,VWS V14.01,2013-03-01 06:01:00,
2013-03-01 01:06:00,38.6,27.1,29.81,West,260,6.0,13.0,63,0.00,,---,0.00,VWS V14.01,2013-03-01 06:06:00,
2013-03-01 01:11:00,38.6,27.1,29.80,NW,317,6.0,13.0,63,0.00,,---,0.00,VWS V14.01,2013-03-01 06:11:00,
2013-03-01 01:16:00,38.5,27.0,29.80,NNW,333,4.0,13.0,63,0.00,,---,0.00,VWS V14.01,2013-03-01 06:16:00,
2013-03-01 01:21:00,38.3,26.8,29.81,NW,316,5.0,13.0,63,0.00,,---,0.00,VWS V14.01,2013-03-01 06:21:00,
2013-03-01 01:26:00,38.3,26.8,29.81,NNW,329,7.0,13.0,63,0.00,,---,0.00,VWS V14.01,2013-03-01 06:26:00,
2013-03-01 01:31:00,38.4,26.9,29.81,NW,312,4.0,5.0,63,0.00,,---,0.00,VWS V14.01,2013-03-01 06:31:00,
2013-03-01 01:36:00,38.4,26.9,29.81,NW,317,6.0,9.0,63,0.00,,---,0.00,VWS V14.01,2013-03-01 06:36:00,
2013-03-01 01:41:00,38.3,27.2,29.81,NW,307,3.0,9.0,64,0.00,,---,0.00,VWS V14.01,2013-03-01 06:41:00,
2013-03-01 01:46:00,38.3,27.2,29.81,NW,325,1.0,9.0,64,0.00,,---,0.00,VWS V14.01,2013-03-01 06:46:00,
2013-03-01 01:51:00,38.2,27.1,29.81,NW,317,2.0,9.0,64,0.00,,---,0.00,VWS V14.01,2013-03-01 06:51:00,
2013-03-01 01:56:00,38.2,27.1,29.81,NW,321,2.0,11.0,64,0.00,,---,0.00,VWS V14.01,2013-03-01 06:56:00,
2013-03-01 02:01:00,38.3,27.2,29.81,NNW,337,3.0,8.0,64,0.00,,---,0.00,VWS V14.01,2013-03-01 07:01:00,
2013-03-01 02:06:00,38.3,27.2,29.81,NNW,330,5.0,9.0,64,0.00,,---,0.00,VWS V14.01,2013-03-01 07:06:00,
2013-03-01 02:11:00,38.2,27.5,29.80,WNW,298,6.0,11.0,65,0.00,,---,0.00,VWS V14.01,2013-03-01 07:11:00,
2013-03-01 02:16:00,38.2,27.5,29.80,NNW,341,7.0,11.0,65,0.00,,---,0.00,VWS V14.01,2013-03-01 07:16:00,
2013-03-01 02:21:00,38.2,27.1,29.80,WNW,294,5.0,15.0,64,0.00,,---,0.00,VWS V14.01,2013-03-01 07:21:00,
2013-03-01 02:26:00,38.2,27.5,29.80,NW,313,5.0,15.0,65,0.00,,---,0.00,VWS V14.01,2013-03-01 07:26:00,
2013-03-01 02:31:00,38.1,27.4,29.80,NW,309,6.0,6.0,65,0.00,,---,0.00,VWS V14.01,2013-03-01 07:31:00,
2013-03-01 02:36:00,38.0,26.9,29.80,NW,321,4.0,8.0,64,0.00,,---,0.00,VWS V14.01,2013-03-01 07:36:00,
2013-03-01 02:41:00,37.9,27.2,29.80,NNW,343,3.0,8.0,65,0.00,,---,0.00,VWS V14.01,2013-03-01 07:41:00,
2013-03-01 02:46:00,37.8,27.1,29.80,NNW,344,4.0,8.0,65,0.00,,---,0.00,VWS V14.01,2013-03-01 07:46:00,
2013-03-01 02:51:00,37.8,26.7,29.80,WNW,298,5.0,12.0,64,0.00,,---,0.00,VWS V14.01,2013-03-01 07:51:00,
2013-03-01 02:56:00,37.8,27.1,29.80,NW,308,7.0,12.0,65,0.00,,---,0.00,VWS V14.01,2013-03-01 07:56:00,
2013-03-01 03:01:00,37.8,27.1,29.80,NW,306,5.0,5.0,65,0.00,,---,0.00,VWS V14.01,2013-03-01 08:01:00,
2013-03-01 03:06:00,37.8,26.7,29.80,NW,314,6.0,12.0,64,0.00,,---,0.00,VWS V14.01,2013-03-01 08:06:00,
2013-03-01 03:11:00,37.8,26.7,29.80,West,281,11.0,12.0,64,0.00,,---,0.00,VWS V14.01,2013-03-01 08:11:00,
2013-03-01 03:15:00,37.7,26.6,29.80,NW,315,5.0,12.0,64,0.00,,---,0.00,VWS V14.01,2013-03-01 08:15:00,
2013-03-01 03:20:00,37.7,26.6,29.79,NNW,333,7.0,12.0,64,0.00,,---,0.00,VWS V14.01,2013-03-01 08:20:00,
2013-03-01 03:25:00,37.7,26.6,29.79,NNW,331,3.0,13.0,64,0.00,,---,0.00,VWS V14.01,2013-03-01 08:25:00,
2013-03-01 03:30:00,37.7,26.3,29.79,NW,318,4.0,7.0,63,0.00,,---,0.00,VWS V14.01,2013-03-01 08:30:00,
2013-03-01 03:35:00,37.7,26.3,29.80,NNW,341,5.0,12.0,63,0.00,,---,0.00,VWS V14.01,2013-03-01 08:35:00,
2013-03-01 03:40:00,37.7,26.3,29.80,NNW,344,4.0,12.0,63,0.00,,---,0.00,VWS V14.01,2013-03-01 08:40:00,
2013-03-01 03:45:00,37.5,26.1,29.80,WNW,303,5.0,12.0,63,0.00,,---,0.00,VWS V14.01,2013-03-01 08:45:00,
2013-03-01 03:50:00,37.5,26.1,29.80,North,350,3.0,12.0,63,0.00,,---,0.00,VWS V14.01,2013-03-01 08:50:00,
2013-03-01 03:55:00,37.5,26.1,29.80,North,10,4.0,12.0,63,0.00,,---,0.00,VWS V14.01,2013-03-01 08:55:00,
2013-03-01 04:00:00,37.4,26.0,29.80,North,355,4.0,4.0,63,0.00,,---,0.00,VWS V14.01,2013-03-01 09:00:00,
2013-03-01 04:05:00,37.4,26.0,29.80,NNW,337,10.0,12.0,63,0.00,,---,0.00,VWS V14.01,2013-03-01 09:05:00,
2013-03-01 04:10:00,37.5,26.1,29.80,North,355,5.0,12.0,63,0.00,,---,0.00,VWS V14.01,2013-03-01 09:10:00,
2013-03-01 04:15:00,37.5,26.1,29.80,NNW,334,6.0,12.0,63,0.00,,---,0.00,VWS V14.01,2013-03-01 09:15:00,
2013-03-01 04:20:00,37.5,26.1,29.80,NNW,346,3.0,12.0,63,0.00,,---,0.00,VWS V14.01,2013-03-01 09:20:00,
2013-03-01 04:25:00,37.6,25.8,29.80,NNW,327,9.0,12.0,62,0.00,,---,0.00,VWS V14.01,2013-03-01 09:25:00,
2013-03-01 04:30:00,37.7,25.9,29.80,NW,325,6.0,10.0,62,0.00,,---,0.00,VWS V14.01,2013-03-01 09:30:00,
2013-03-01 04:35:00,37.8,26.0,29.80,NNW,342,6.0,13.0,62,0.00,,---,0.00,VWS V14.01,2013-03-01 09:35:00,
2013-03-01 04:40:00,37.7,25.9,29.80,NW,306,5.0,13.0,62,0.00,,---,0.00,VWS V14.01,2013-03-01 09:40:00,
2013-03-01 04:45:00,37.7,25.9,29.80,NNW,333,4.0,13.0,62,0.00,,---,0.00,VWS V14.01,2013-03-01 09:45:00,
2013-03-01 04:50:00,37.5,26.1,29.80,NW,309,2.0,13.0,63,0.00,,---,0.00,VWS V14.01,2013-03-01 09:50:00,
2013-03-01 04:55:00,37.4,26.0,29.81,NW,309,0.0,13.0,63,0.00,,---,0.00,VWS V14.01,2013-03-01 09:55:00,
2013-03-01 05:00:00,37.2,25.8,29.81,NW,309,0.0,1.0,63,0.00,,---,0.00,VWS V14.01,2013-03-01 10:00:00,
2013-03-01 05:05:00,37.1,26.1,29.81,NW,309,1.0,1.0,64,0.00,,---,0.00,VWS V14.01,2013-03-01 10:05:00,
2013-03-01 05:10:00,37.0,26.0,29.82,NNE,32,2.0,5.0,64,0.00,,---,0.00,VWS V14.01,2013-03-01 10:10:00,
2013-03-01 05:15:00,37.1,26.1,29.82,NNW,340,2.0,6.0,64,0.00,,---,0.00,VWS V14.01,2013-03-01 10:15:00,
2013-03-01 05:20:00,37.1,26.1,29.81,NNW,340,4.0,6.0,64,0.00,,---,0.00,VWS V14.01,2013-03-01 10:20:00,
2013-03-01 05:25:00,37.1,26.1,29.82,North,351,3.0,6.0,64,0.00,,---,0.00,VWS V14.01,2013-03-01 10:25:00,
2013-03-01 05:30:00,37.3,25.9,29.82,NNW,347,5.0,11.0,63,0.00,,---,0.00,VWS V14.01,2013-03-01 10:30:00,
2013-03-01 05:35:00,37.4,26.0,29.82,NW,325,3.0,5.0,63,0.00,,---,0.00,VWS V14.01,2013-03-01 10:35:00,
2013-03-01 05:40:00,37.4,26.0,29.82,NNW,327,2.0,5.0,63,0.00,,---,0.00,VWS V14.01,2013-03-01 10:40:00,
2013-03-01 05:45:00,37.3,25.9,29.82,NNW,327,2.0,5.0,63,0.00,,---,0.00,VWS V14.01,2013-03-01 10:45:00,
2013-03-01 05:50:00,37.2,26.2,29.82,NNW,327,2.0,5.0,64,0.00,,---,0.00,VWS V14.01,2013-03-01 10:50:00,
2013-03-01 05:55:00,37.1,26.1,29.82,NW,326,1.0,5.0,64,0.00,,---,0.00,VWS V14.01,2013-03-01 10:55:00,
2013-03-01 06:00:00,37.1,26.1,29.82,NNW,333,3.0,5.0,64,0.00,,---,0.00,VWS V14.01,2013-03-01 11:00:00,
2013-03-01 06:05:00,37.2,26.2,29.82,NW,321,4.0,10.0,64,0.00,,---,0.00,VWS V14.01,2013-03-01 11:05:00,
2013-03-01 06:10:00,37.2,26.2,29.82,NNE,26,4.0,10.0,64,0.00,,---,0.00,VWS V14.01,2013-03-01 11:10:00,
2013-03-01 06:15:00,37.1,26.1,29.82,NNW,343,4.0,10.0,64,0.00,,---,0.00,VWS V14.01,2013-03-01 11:15:00,
2013-03-01 06:20:00,37.1,26.1,29.82,NW,318,4.0,10.0,64,0.00,,---,0.00,VWS V14.01,2013-03-01 11:20:00,
2013-03-01 06:25:00,37.1,26.4,29.82,NW,318,2.0,10.0,65,0.00,,---,0.00,VWS V14.01,2013-03-01 11:25:00,
2013-03-01 06:30:00,37.0,26.3,29.82,NW,319,2.0,10.0,65,0.00,,---,0.00,VWS V14.01,2013-03-01 11:30:00,
2013-03-01 06:35:00,36.9,26.6,29.82,NW,319,1.0,3.0,66,0.00,,---,0.00,VWS V14.01,2013-03-01 11:35:00,
2013-03-01 06:40:00,36.8,26.1,29.82,NNW,344,2.0,5.0,65,0.00,,---,0.00,VWS V14.01,2013-03-01 11:40:00,
2013-03-01 06:45:00,36.8,26.5,29.83,NNW,342,3.0,5.0,66,0.00,,---,0.00,VWS V14.01,2013-03-01 11:45:00,
2013-03-01 06:50:00,36.9,26.2,29.83,NW,306,3.0,6.0,65,0.00,,---,0.00,VWS V14.01,2013-03-01 11:50:00,
2013-03-01 06:55:00,36.9,26.6,29.83,NNW,338,3.0,6.0,66,0.00,,---,0.00,VWS V14.01,2013-03-01 11:55:00,
2013-03-01 07:00:00,36.9,26.6,29.83,NNW,338,3.0,6.0,66,0.00,,---,0.00,VWS V14.01,2013-03-01 12:00:00,
2013-03-01 07:05:00,36.8,26.5,29.83,NNW,336,3.0,6.0,66,0.00,,---,0.00,VWS V14.01,2013-03-01 12:05:00,
2013-03-01 07:10:00,36.8,26.5,29.84,NW,325,3.0,6.0,66,0.00,,---,0.00,VWS V14.01,2013-03-01 12:10:00,
2013-03-01 07:15:00,36.8,26.5,29.84,NNW,348,3.0,6.0,66,0.00,,---,0.00,VWS V14.01,2013-03-01 12:15:00,
2013-03-01 07:20:00,36.8,26.5,29.85,NNW,331,5.0,6.0,66,0.00,,---,0.00,VWS V14.01,2013-03-01 12:20:00,
2013-03-01 07:25:00,36.8,26.5,29.85,NW,317,4.0,7.0,66,0.00,,---,0.00,VWS V14.01,2013-03-01 12:25:00,
2013-03-01 07:30:00,36.8,26.9,29.85,NNW,348,4.0,7.0,67,0.00,,---,0.00,VWS V14.01,2013-03-01 12:30:00,
2013-03-01 07:35:00,36.8,26.9,29.85,NNW,328,5.0,10.0,67,0.00,,---,0.00,VWS V14.01,2013-03-01 12:35:00,
2013-03-01 07:40:00,36.7,27.1,29.86,NW,321,7.0,10.0,68,0.00,,---,0.00,VWS V14.01,2013-03-01 12:40:00,
2013-03-01 07:45:00,36.6,27.0,29.86,NW,315,2.0,10.0,68,0.00,,---,0.00,VWS V14.01,2013-03-01 12:45:00,
2013-03-01 07:50:00,36.5,27.3,29.87,WNW,290,4.0,10.0,69,0.00,,---,0.00,VWS V14.01,2013-03-01 12:50:00,
2013-03-01 07:55:00,36.4,27.2,29.87,NW,325,2.0,10.0,69,0.00,,---,0.00,VWS V14.01,2013-03-01 12:55:00,
2013-03-01 08:00:00,36.3,27.5,29.88,WNW,303,6.0,10.0,70,0.00,,---,0.00,VWS V14.01,2013-03-01 13:00:00,
2013-03-01 08:05:00,36.3,27.5,29.88,WNW,300,3.0,6.0,70,0.00,,---,0.00,VWS V14.01,2013-03-01 13:05:00,
2013-03-01 08:10:00,36.2,27.4,29.88,WNW,294,3.0,6.0,70,0.00,,---,0.00,VWS V14.01,2013-03-01 13:10:00,
2013-03-01 08:15:00,36.2,27.7,29.88,NW,323,3.0,6.0,71,0.00,,---,0.00,VWS V14.01,2013-03-01 13:15:00,
2013-03-01 08:20:00,36.1,27.6,29.88,WNW,296,3.0,10.0,71,0.00,,---,0.00,VWS V14.01,2013-03-01 13:20:00,
2013-03-01 08:25:00,36.0,27.9,29.89,WNW,296,4.0,10.0,72,0.00,,---,0.00,VWS V14.01,2013-03-01 13:25:00,
2013-03-01 08:30:00,35.9,28.1,29.89,NW,322,5.0,10.0,73,0.00,,---,0.00,VWS V14.01,2013-03-01 13:30:00,
2013-03-01 08:35:00,35.7,27.9,29.89,NW,315,3.0,7.0,73,0.00,,---,0.00,VWS V14.01,2013-03-01 13:35:00,
2013-03-01 08:40:00,35.6,28.1,29.89,NW,304,3.0,7.0,74,0.00,,---,0.00,VWS V14.01,2013-03-01 13:40:00,
2013-03-01 08:45:00,35.3,27.9,29.89,NW,306,2.0,7.0,74,0.00,,---,0.00,VWS V14.01,2013-03-01 13:45:00,
2013-03-01 08:50:00,35.2,28.1,29.88,NW,313,6.0,9.0,75,0.00,,---,0.00,VWS V14.01,2013-03-01 13:50:00,
2013-03-01 08:55:00,35.1,28.3,29.88,WNW,302,6.0,9.0,76,0.00,,---,0.00,VWS V14.01,2013-03-01 13:55:00,
2013-03-01 09:00:00,35.0,28.2,29.88,NNW,329,4.0,9.0,76,0.00,,---,0.00,VWS V14.01,2013-03-01 14:00:00,
2013-03-01 09:05:00,35.0,28.5,29.88,NW,313,4.0,7.0,77,0.00,,---,0.00,VWS V14.01,2013-03-01 14:05:00,
2013-03-01 09:10:00,35.0,28.5,29.88,NNW,327,5.0,7.0,77,0.00,,---,0.00,VWS V14.01,2013-03-01 14:10:00,
2013-03-01 09:15:00,35.1,28.6,29.88,NNW,327,5.0,7.0,77,0.00,,---,0.00,VWS V14.01,2013-03-01 14:15:00,
2013-03-01 09:20:00,35.2,28.7,29.88,NW,306,2.0,7.0,77,0.00,,---,0.00,VWS V14.01,2013-03-01 14:20:00,
2013-03-01 09:25:00,35.1,28.6,29.88,NNW,332,4.0,8.0,77,0.00,,---,0.00,VWS V14.01,2013-03-01 14:25:00,
2013-03-01 09:30:00,35.2,28.7,29.88,WNW,290,6.0,8.0,77,0.00,,---,0.00,VWS V14.01,2013-03-01 14:30:00,
2013-03-01 09:35:00,35.3,28.5,29.88,WNW,301,6.0,6.0,76,0.00,,---,0.00,VWS V14.01,2013-03-01 14:35:00,
2013-03-01 09:40:00,35.3,28.5,29.88,NW,304,3.0,10.0,76,0.00,,---,0.00,VWS V14.01,2013-03-01 14:40:00,
2013-03-01 09:45:00,35.5,28.7,29.88,WNW,297,5.0,10.0,76,0.00,,---,0.00,VWS V14.01,2013-03-01 14:45:00,
2013-03-01 09:50:00,35.4,28.3,29.89,NNW,345,5.0,11.0,75,0.00,,---,0.00,VWS V14.01,2013-03-01 14:50:00,
2013-03-01 09:55:00,35.5,28.4,29.88,WNW,291,3.0,11.0,75,0.00,,---,0.00,VWS V14.01,2013-03-01 14:55:00,
2013-03-01 10:00:00,35.5,28.4,29.89,NW,304,7.0,11.0,75,0.00,,---,0.00,VWS V14.01,2013-03-01 15:00:00,
2013-03-01 10:05:00,35.5,28.0,29.89,NW,309,3.0,9.0,74,0.00,,---,0.00,VWS V14.01,2013-03-01 15:05:00,
2013-03-01 10:10:00,35.6,28.1,29.88,WNW,294,7.0,10.0,74,0.00,,---,0.00,VWS V14.01,2013-03-01 15:10:00,
2013-03-01 10:15:00,35.6,27.8,29.89,NW,316,4.0,10.0,73,0.00,,---,0.00,VWS V14.01,2013-03-01 15:15:00,
2013-03-01 10:20:00,35.8,28.0,29.89,WNW,292,4.0,10.0,73,0.00,,---,0.00,VWS V14.01,2013-03-01 15:20:00,
2013-03-01 10:25:00,35.7,27.6,29.89,NNW,331,5.0,10.0,72,0.00,,---,0.00,VWS V14.01,2013-03-01 15:25:00,
2013-03-01 10:29:00,35.8,27.3,29.89,WNW,302,5.0,10.0,71,0.00,,---,0.00,VWS V14.01,2013-03-01 15:29:00,
2013-03-01 10:34:00,35.9,27.4,29.88,WNW,299,5.0,11.0,71,0.00,,---,0.00,VWS V14.01,2013-03-01 15:34:00,
2013-03-01 10:39:00,36.1,27.3,29.88,NW,309,6.0,11.0,70,0.00,,---,0.00,VWS V14.01,2013-03-01 15:39:00,
2013-03-01 10:44:00,36.2,27.4,29.89,NW,314,8.0,11.0,70,0.00,,---,0.00,VWS V14.01,2013-03-01 15:44:00,
2013-03-01 10:49:00,36.1,26.9,29.89,NW,311,6.0,12.0,69,0.00,,---,0.00,VWS V14.01,2013-03-01 15:49:00,
2013-03-01 10:54:00,36.1,26.6,29.89,NW,316,3.0,12.0,68,0.00,,---,0.00,VWS V14.01,2013-03-01 15:54:00,
2013-03-01 10:59:00,36.2,26.7,29.89,NW,305,5.0,12.0,68,0.00,,---,0.00,VWS V14.01,2013-03-01 15:59:00,
2013-03-01 11:04:00,36.4,27.2,29.89,WNW,284,3.0,6.0,69,0.00,,---,0.00,VWS V14.01,2013-03-01 16:04:00,
2013-03-01 11:09:00,36.4,26.9,29.89,NW,326,4.0,6.0,68,0.00,,---,0.00,VWS V14.01,2013-03-01 16:09:00,
2013-03-01 11:14:00,36.5,27.0,29.89,WNW,295,3.0,6.0,68,0.00,,---,0.00,VWS V14.01,2013-03-01 16:14:00,
2013-03-01 11:19:00,36.7,26.8,29.89,WNW,292,5.0,6.0,67,0.00,,---,0.00,VWS V14.01,2013-03-01 16:19:00,
2013-03-01 11:24:00,36.8,25.8,29.89,WNW,302,7.0,10.0,64,0.00,,---,0.00,VWS V14.01,2013-03-01 16:24:00,
2013-03-01 11:29:00,36.6,25.6,29.89,WNW,294,9.0,10.0,64,0.00,,---,0.00,VWS V14.01,2013-03-01 16:29:00,
2013-03-01 11:34:00,36.7,26.1,29.89,NW,321,6.0,8.0,65,0.00,,---,0.00,VWS V14.01,2013-03-01 16:34:00,
2013-03-01 11:39:00,36.7,26.1,29.89,WNW,302,5.0,8.0,65,0.00,,---,0.00,VWS V14.01,2013-03-01 16:39:00,
2013-03-01 11:44:00,36.8,26.1,29.89,NW,321,0.0,8.0,65,0.00,,---,0.00,VWS V14.01,2013-03-01 16:44:00,
2013-03-01 11:49:00,36.8,26.1,29.89,WNW,291,6.0,9.0,65,0.00,,---,0.00,VWS V14.01,2013-03-01 16:49:00,
2013-03-01 11:54:00,36.8,26.1,29.89,WNW,298,4.0,9.0,65,0.00,,---,0.00,VWS V14.01,2013-03-01 16:54:00,
2013-03-01 11:59:00,36.8,26.1,29.90,WNW,296,7.0,10.0,65,0.00,,---,0.00,VWS V14.01,2013-03-01 16:59:00,
2013-03-01 12:04:00,36.7,26.1,29.89,WNW,293,3.0,9.0,65,0.00,,---,0.00,VWS V14.01,2013-03-01 17:04:00,
2013-03-01 12:09:00,36.8,26.1,29.89,NW,317,2.0,10.0,65,0.00,,---,0.00,VWS V14.01,2013-03-01 17:09:00,
2013-03-01 12:14:00,36.9,25.9,29.89,WNW,282,10.0,12.0,64,0.00,,---,0.00,VWS V14.01,2013-03-01 17:14:00,
2013-03-01 12:19:00,36.8,25.8,29.89,NW,315,5.0,12.0,64,0.00,,---,0.00,VWS V14.01,2013-03-01 17:19:00,
2013-03-01 12:24:00,36.9,25.9,29.89,NW,306,3.0,12.0,64,0.00,,---,0.00,VWS V14.01,2013-03-01 17:24:00,
2013-03-01 12:29:00,36.8,25.4,29.89,NNW,330,0.0,12.0,63,0.00,,---,0.00,VWS V14.01,2013-03-01 17:29:00,
2013-03-01 12:34:00,36.8,25.0,29.88,NNW,331,4.0,9.0,62,0.00,,---,0.00,VWS V14.01,2013-03-01 17:34:00,
2013-03-01 12:39:00,36.9,25.5,29.88,NW,304,5.0,9.0,63,0.00,,---,0.00,VWS V14.01,2013-03-01 17:39:00,
2013-03-01 12:44:00,36.9,25.5,29.88,WNW,298,6.0,9.0,63,0.00,,---,0.00,VWS V14.01,2013-03-01 17:44:00,
2013-03-01 12:49:00,37.0,25.6,29.88,NW,314,2.0,9.0,63,0.00,,---,0.00,VWS V14.01,2013-03-01 17:49:00,
2013-03-01 12:54:00,37.0,25.6,29.88,NW,322,2.0,9.0,63,0.00,,---,0.00,VWS V14.01,2013-03-01 17:54:00,
2013-03-01 12:59:00,37.3,25.9,29.87,NW,313,3.0,9.0,63,0.00,,---,0.00,VWS V14.01,2013-03-01 17:59:00,
2013-03-01 13:04:00,37.4,26.0,29.87,NW,308,4.0,7.0,63,0.00,,---,0.00,VWS V14.01,2013-03-01 18:04:00,
2013-03-01 13:09:00,37.3,25.5,29.87,SW,221,4.0,10.0,62,0.00,,---,0.00,VWS V14.01,2013-03-01 18:09:00,
2013-03-01 13:14:00,37.3,25.1,29.87,WNW,297,2.0,10.0,61,0.00,,---,0.00,VWS V14.01,2013-03-01 18:14:00,
2013-03-01 13:19:00,37.2,25.0,29.87,West,281,4.0,10.0,61,0.00,,---,0.00,VWS V14.01,2013-03-01 18:19:00,
2013-03-01 13:24:00,37.1,25.3,29.87,WNW,290,5.0,10.0,62,0.00,,---,0.00,VWS V14.01,2013-03-01 18:24:00,
2013-03-01 13:29:00,37.1,25.3,29.87,NW,324,5.0,10.0,62,0.00,,---,0.00,VWS V14.01,2013-03-01 18:29:00,
2013-03-01 13:34:00,37.0,25.6,29.87,WNW,297,5.0,7.0,63,0.00,,---,0.00,VWS V14.01,2013-03-01 18:34:00,
2013-03-01 13:39:00,37.0,25.6,29.87,WNW,283,4.0,8.0,63,0.00,,---,0.00,VWS V14.01,2013-03-01 18:39:00,
2013-03-01 13:44:00,37.0,25.2,29.87,NNW,337,1.0,10.0,62,0.00,,---,0.00,VWS V14.01,2013-03-01 18:44:00,
2013-03-01 13:49:00,37.0,24.8,29.87,WNW,290,5.0,13.0,61,0.00,,---,0.00,VWS V14.01,2013-03-01 18:49:00,
2013-03-01 13:54:00,37.0,24.8,29.87,NW,306,4.0,13.0,61,0.00,,---,0.00,VWS V14.01,2013-03-01 18:54:00,
2013-03-01 13:59:00,37.2,25.0,29.87,WNW,291,3.0,13.0,61,0.00,,---,0.00,VWS V14.01,2013-03-01 18:59:00,
2013-03-01 14:04:00,37.4,25.2,29.87,West,268,7.0,11.0,61,0.00,,---,0.00,VWS V14.01,2013-03-01 19:04:00,
2013-03-01 14:09:00,37.5,24.9,29.87,NNW,344,3.0,11.0,60,0.00,,---,0.00,VWS V14.01,2013-03-01 19:09:00,
2013-03-01 14:14:00,37.6,25.0,29.86,NW,307,10.0,11.0,60,0.00,,---,0.00,VWS V14.01,2013-03-01 19:14:00,
2013-03-01 14:19:00,37.5,24.9,29.86,WNW,298,5.0,12.0,60,0.00,,---,0.00,VWS V14.01,2013-03-01 19:19:00,
2013-03-01 14:24:00,37.7,24.7,29.86,WNW,303,3.0,13.0,59,0.00,,---,0.00,VWS V14.01,2013-03-01 19:24:00,
2013-03-01 14:29:00,37.7,25.1,29.86,NW,325,5.0,15.0,60,0.00,,---,0.00,VWS V14.01,2013-03-01 19:29:00,
2013-03-01 14:34:00,37.7,25.1,29.86,WNW,298,8.0,14.0,60,0.00,,---,0.00,VWS V14.01,2013-03-01 19:34:00,
2013-03-01 14:39:00,37.5,25.3,29.86,West,273,6.0,14.0,61,0.00,,---,0.00,VWS V14.01,2013-03-01 19:39:00,
2013-03-01 14:44:00,37.4,25.2,29.86,WNW,285,11.0,14.0,61,0.00,,---,0.00,VWS V14.01,2013-03-01 19:44:00,
2013-03-01 14:49:00,37.6,25.4,29.86,NW,322,5.0,14.0,61,0.00,,---,0.00,VWS V14.01,2013-03-01 19:49:00,
2013-03-01 14:54:00,37.6,25.4,29.86,NW,311,3.0,14.0,61,0.00,,---,0.00,VWS V14.01,2013-03-01 19:54:00,
2013-03-01 14:59:00,37.8,25.6,29.86,WNW,299,4.0,14.0,61,0.00,,---,0.00,VWS V14.01,2013-03-01 19:59:00,
2013-03-01 15:04:00,37.9,25.3,29.86,WNW,298,10.0,11.0,60,0.00,,---,0.00,VWS V14.01,2013-03-01 20:04:00,
2013-03-01 15:09:00,37.6,25.0,29.86,WNW,300,11.0,12.0,60,0.00,,---,0.00,VWS V14.01,2013-03-01 20:09:00,
2013-03-01 15:14:00,37.3,25.1,29.86,West,276,10.0,14.0,61,0.00,,---,0.00,VWS V14.01,2013-03-01 20:14:00,
2013-03-01 15:19:00,37.1,24.9,29.86,NNW,341,12.0,14.0,61,0.00,,---,0.00,VWS V14.01,2013-03-01 20:19:00,
2013-03-01 15:24:00,36.9,24.7,29.86,NW,311,6.0,14.0,61,0.00,,---,0.00,VWS V14.01,2013-03-01 20:24:00,
2013-03-01 15:29:00,36.9,25.1,29.86,NW,323,9.0,14.0,62,0.00,,---,0.00,VWS V14.01,2013-03-01 20:29:00,
2013-03-01 15:34:00,37.0,24.8,29.86,NW,306,5.0,10.0,61,0.00,,---,0.00,VWS V14.01,2013-03-01 20:34:00,
2013-03-01 15:39:00,37.0,25.2,29.86,WNW,291,10.0,14.0,62,0.00,,---,0.00,VWS V14.01,2013-03-01 20:39:00,
2013-03-01 15:44:00,36.8,25.0,29.86,NW,316,7.0,14.0,62,0.00,,---,0.00,VWS V14.01,2013-03-01 20:44:00,
2013-03-01 15:49:00,36.9,25.5,29.87,NW,310,4.0,14.0,63,0.00,,---,0.00,VWS V14.01,2013-03-01 20:49:00,
2013-03-01 15:54:00,36.9,25.5,29.87,West,273,5.0,14.0,63,0.00,,---,0.00,VWS V14.01,2013-03-01 20:54:00,
2013-03-01 15:59:00,36.7,25.3,29.87,WNW,301,4.0,14.0,63,0.00,,---,0.00,VWS V14.01,2013-03-01 20:59:00,
2013-03-01 16:04:00,36.6,25.6,29.87,WSW,258,4.0,5.0,64,0.00,,---,0.00,VWS V14.01,2013-03-01 21:04:00,
2013-03-01 16:09:00,36.6,25.6,29.88,WNW,302,4.0,7.0,64,0.00,,---,0.00,VWS V14.01,2013-03-01 21:09:00,
2013-03-01 16:14:00,36.4,25.4,29.87,NW,325,2.0,7.0,64,0.00,,---,0.00,VWS V14.01,2013-03-01 21:14:00,
2013-03-01 16:19:00,36.4,25.8,29.88,NW,313,3.0,7.0,65,0.00,,---,0.00,VWS V14.01,2013-03-01 21:19:00,
2013-03-01 16:24:00,36.2,25.6,29.88,NW,311,3.0,9.0,65,0.00,,---,0.00,VWS V14.01,2013-03-01 21:24:00,
2013-03-01 16:29:00,36.1,25.9,29.88,NNW,333,4.0,11.0,66,0.00,,---,0.00,VWS V14.01,2013-03-01 21:29:00,
2013-03-01 16:34:00,36.0,25.8,29.88,NW,306,4.0,10.0,66,0.00,,---,0.00,VWS V14.01,2013-03-01 21:34:00,
2013-03-01 16:39:00,36.0,25.8,29.88,WNW,293,4.0,10.0,66,0.00,,---,0.00,VWS V14.01,2013-03-01 21:39:00,
2013-03-01 16:44:00,36.0,26.1,29.88,NW,306,2.0,10.0,67,0.00,,---,0.00,VWS V14.01,2013-03-01 21:44:00,
2013-03-01 16:49:00,35.9,26.0,29.89,WNW,293,4.0,10.0,67,0.00,,---,0.00,VWS V14.01,2013-03-01 21:49:00,
2013-03-01 16:54:00,35.8,26.3,29.89,NW,306,3.0,10.0,68,0.00,,---,0.00,VWS V14.01,2013-03-01 21:54:00,
2013-03-01 16:59:00,35.7,26.2,29.89,West,275,4.0,10.0,68,0.00,,---,0.00,VWS V14.01,2013-03-01 21:59:00,
2013-03-01 17:04:00,35.6,26.5,29.88,WNW,299,5.0,5.0,69,0.00,,---,0.00,VWS V14.01,2013-03-01 22:04:00,
2013-03-01 17:09:00,35.5,26.0,29.88,NNW,327,2.0,9.0,68,0.00,,---,0.00,VWS V14.01,2013-03-01 22:09:00,
2013-03-01 17:14:00,35.4,26.3,29.88,NW,325,2.0,9.0,69,0.00,,---,0.00,VWS V14.01,2013-03-01 22:14:00,
2013-03-01 17:19:00,35.4,25.9,29.88,WNW,303,4.0,9.0,68,0.00,,---,0.00,VWS V14.01,2013-03-01 22:19:00,
2013-03-01 17:24:00,35.4,25.9,29.89,NW,304,2.0,9.0,68,0.00,,---,0.00,VWS V14.01,2013-03-01 22:24:00,
2013-03-01 17:29:00,35.5,26.0,29.89,NW,304,0.0,9.0,68,0.00,,---,0.00,VWS V14.01,2013-03-01 22:29:00,
2013-03-01 17:34:00,35.5,25.6,29.89,NW,314,3.0,6.0,67,0.00,,---,0.00,VWS V14.01,2013-03-01 22:34:00,
2013-03-01 17:39:00,35.5,25.6,29.89,NW,324,5.0,6.0,67,0.00,,---,0.00,VWS V14.01,2013-03-01 22:39:00,
2013-03-01 17:44:00,35.6,25.4,29.90,North,349,4.0,6.0,66,0.00,,---,0.00,VWS V14.01,2013-03-01 22:44:00,
2013-03-01 17:49:00,35.6,25.0,29.90,NNW,340,3.0,7.0,65,0.00,,---,0.00,VWS V14.01,2013-03-01 22:49:00,
2013-03-01 17:54:00,35.6,25.0,29.90,NW,307,2.0,7.0,65,0.00,,---,0.00,VWS V14.01,2013-03-01 22:54:00,
2013-03-01 17:59:00,35.6,25.0,29.90,NW,307,2.0,7.0,65,0.00,,---,0.00,VWS V14.01,2013-03-01 22:59:00,
2013-03-01 18:04:00,35.5,24.9,29.90,NW,319,1.0,5.0,65,0.00,,---,0.00,VWS V14.01,2013-03-01 23:04:00,
2013-03-01 18:09:00,35.5,24.9,29.90,NW,311,4.0,5.0,65,0.00,,---,0.00,VWS V14.01,2013-03-01 23:09:00,
2013-03-01 18:14:00,35.5,24.9,29.90,NW,313,3.0,5.0,65,0.00,,---,0.00,VWS V14.01,2013-03-01 23:14:00,
2013-03-01 18:19:00,35.5,24.9,29.90,WNW,298,2.0,7.0,65,0.00,,---,0.00,VWS V14.01,2013-03-01 23:19:00,
2013-03-01 18:24:00,35.4,24.8,29.90,WNW,299,7.0,8.0,65,0.00,,---,0.00,VWS V14.01,2013-03-01 23:24:00,
2013-03-01 18:29:00,35.5,24.9,29.90,NW,315,2.0,8.0,65,0.00,,---,0.00,VWS V14.01,2013-03-01 23:29:00,
2013-03-01 18:34:00,35.4,24.8,29.90,NW,314,3.0,5.0,65,0.00,,---,0.00,VWS V14.01,2013-03-01 23:34:00,
2013-03-01 18:39:00,35.4,24.8,29.90,NW,307,3.0,5.0,65,0.00,,---,0.00,VWS V14.01,2013-03-01 23:39:00,
2013-03-01 18:44:00,35.4,24.8,29.90,NW,305,3.0,7.0,65,0.00,,---,0.00,VWS V14.01,2013-03-01 23:44:00,
2013-03-01 18:49:00,35.4,24.5,29.90,NW,313,2.0,7.0,64,0.00,,---,0.00,VWS V14.01,2013-03-01 23:49:00,
2013-03-01 18:54:00,35.4,24.8,29.90,NW,309,1.0,7.0,65,0.00,,---,0.00,VWS V14.01,2013-03-01 23:54:00,
2013-03-01 18:59:00,35.4,24.5,29.91,NW,314,4.0,7.0,64,0.00,,---,0.00,VWS V14.01,2013-03-01 23:59:00,
2013-03-01 19:04:00,35.4,24.1,29.91,NW,313,2.0,6.0,63,0.00,,---,0.00,VWS V14.01,2013-03-02 00:04:00,
2013-03-01 19:09:00,35.4,24.5,29.91,NNW,338,5.0,6.0,64,0.00,,---,0.00,VWS V14.01,2013-03-02 00:09:00,
2013-03-01 19:14:00,35.3,24.4,29.91,NNW,328,7.0,13.0,64,0.00,,---,0.00,VWS V14.01,2013-03-02 00:14:00,
2013-03-01 19:19:00,35.4,24.1,29.92,NW,313,9.0,13.0,63,0.00,,---,0.00,VWS V14.01,2013-03-02 00:19:00,
2013-03-01 19:24:00,35.4,23.7,29.92,NNW,343,6.0,13.0,62,0.00,,---,0.00,VWS V14.01,2013-03-02 00:24:00,
2013-03-01 19:29:00,35.4,23.7,29.92,NNW,337,6.0,13.0,62,0.00,,---,0.00,VWS V14.01,2013-03-02 00:29:00,
2013-03-01 19:34:00,35.4,23.7,29.92,NW,317,2.0,6.0,62,0.00,,---,0.00,VWS V14.01,2013-03-02 00:34:00,
2013-03-01 19:39:00,35.3,23.6,29.92,NW,304,6.0,7.0,62,0.00,,---,0.00,VWS V14.01,2013-03-02 00:39:00,
2013-03-01 19:44:00,35.3,23.6,29.92,NNW,329,7.0,10.0,62,0.00,,---,0.00,VWS V14.01,2013-03-02 00:44:00,
2013-03-01 19:49:00,35.2,23.5,29.92,WNW,303,6.0,10.0,62,0.00,,---,0.00,VWS V14.01,2013-03-02 00:49:00,
2013-03-01 19:54:00,35.2,23.1,29.92,NNW,342,5.0,10.0,61,0.00,,---,0.00,VWS V14.01,2013-03-02 00:54:00,
2013-03-01 19:59:00,35.2,23.1,29.92,NW,307,5.0,10.0,61,0.00,,---,0.00,VWS V14.01,2013-03-02 00:59:00,
2013-03-01 20:04:00,35.2,23.1,29.92,NW,319,5.0,9.0,61,0.00,,---,0.00,VWS V14.01,2013-03-02 01:04:00,
2013-03-01 20:09:00,35.1,23.0,29.92,NNW,330,7.0,10.0,61,0.00,,---,0.00,VWS V14.01,2013-03-02 01:09:00,
2013-03-01 20:14:00,35.1,23.4,29.92,NW,320,2.0,11.0,62,0.00,,---,0.00,VWS V14.01,2013-03-02 01:14:00,
2013-03-01 20:19:00,34.9,23.2,29.93,WNW,292,4.0,11.0,62,0.00,,---,0.00,VWS V14.01,2013-03-02 01:19:00,
2013-03-01 20:24:00,34.9,22.8,29.93,NW,326,4.0,11.0,61,0.00,,---,0.00,VWS V14.01,2013-03-02 01:24:00,
2013-03-01 20:29:00,34.8,23.1,29.93,NW,307,8.0,11.0,62,0.00,,---,0.00,VWS V14.01,2013-03-02 01:29:00,
2013-03-01 20:34:00,34.7,22.6,29.93,NNW,331,6.0,10.0,61,0.00,,---,0.00,VWS V14.01,2013-03-02 01:34:00,
2013-03-01 20:39:00,34.8,22.3,29.93,WNW,297,3.0,10.0,60,0.00,,---,0.00,VWS V14.01,2013-03-02 01:39:00,
2013-03-01 20:43:00,34.7,22.6,29.93,NNW,327,7.0,10.0,61,0.00,,---,0.00,VWS V14.01,2013-03-02 01:43:00,
2013-03-01 20:48:00,34.6,22.9,29.93,NW,310,3.0,10.0,62,0.00,,---,0.00,VWS V14.01,2013-03-02 01:48:00,
2013-03-01 20:53:00,34.4,22.4,29.93,NW,306,4.0,10.0,61,0.00,,---,0.00,VWS V14.01,2013-03-02 01:53:00,
2013-03-01 20:58:00,34.4,22.4,29.94,WNW,288,1.0,10.0,61,0.00,,---,0.00,VWS V14.01,2013-03-02 01:58:00,
2013-03-01 21:03:00,34.4,22.7,29.94,WNW,291,1.0,3.0,62,0.00,,---,0.00,VWS V14.01,2013-03-02 02:03:00,
2013-03-01 21:08:00,34.2,22.2,29.94,NW,317,5.0,9.0,61,0.00,,---,0.00,VWS V14.01,2013-03-02 02:08:00,
2013-03-01 21:13:00,34.1,22.5,29.93,NW,309,5.0,9.0,62,0.00,,---,0.00,VWS V14.01,2013-03-02 02:13:00,
2013-03-01 21:18:00,34.1,22.5,29.93,NW,315,2.0,9.0,62,0.00,,---,0.00,VWS V14.01,2013-03-02 02:18:00,
2013-03-01 21:23:00,34.0,22.0,29.94,NW,319,2.0,9.0,61,0.00,,---,0.00,VWS V14.01,2013-03-02 02:23:00,
2013-03-01 21:28:00,33.9,22.3,29.94,NW,318,4.0,9.0,62,0.00,,---,0.00,VWS V14.01,2013-03-02 02:28:00,
2013-03-01 21:33:00,33.9,22.3,29.94,WNW,303,3.0,6.0,62,0.00,,---,0.00,VWS V14.01,2013-03-02 02:33:00,
2013-03-01 21:38:00,33.8,22.2,29.94,NW,308,2.0,6.0,62,0.00,,---,0.00,VWS V14.01,2013-03-02 02:38:00,
2013-03-01 21:43:00,33.8,22.2,29.94,WNW,284,6.0,10.0,62,0.00,,---,0.00,VWS V14.01,2013-03-02 02:43:00,
2013-03-01 21:48:00,33.9,21.9,29.94,NW,317,3.0,10.0,61,0.00,,---,0.00,VWS V14.01,2013-03-02 02:48:00,
2013-03-01 21:53:00,34.1,21.7,29.94,NNW,333,4.0,10.0,60,0.00,,---,0.00,VWS V14.01,2013-03-02 02:53:00,
2013-03-01 21:58:00,34.1,21.7,29.94,NW,308,4.0,10.0,60,0.00,,---,0.00,VWS V14.01,2013-03-02 02:58:00,
2013-03-01 22:03:00,34.1,21.7,29.94,NW,321,5.0,7.0,60,0.00,,---,0.00,VWS V14.01,2013-03-02 03:03:00,
2013-03-01 22:08:00,34.1,21.7,29.94,NW,310,3.0,7.0,60,0.00,,---,0.00,VWS V14.01,2013-03-02 03:08:00,
2013-03-01 22:13:00,34.0,21.6,29.94,North,355,3.0,9.0,60,0.00,,---,0.00,VWS V14.01,2013-03-02 03:13:00,
2013-03-01 22:18:00,33.9,21.5,29.94,NW,319,5.0,9.0,60,0.00,,---,0.00,VWS V14.01,2013-03-02 03:18:00,
2013-03-01 22:23:00,33.7,21.7,29.94,NW,322,1.0,9.0,61,0.00,,---,0.00,VWS V14.01,2013-03-02 03:23:00,
2013-03-01 22:28:00,33.4,21.4,29.94,WNW,298,6.0,10.0,61,0.00,,---,0.00,VWS V14.01,2013-03-02 03:28:00,
2013-03-01 22:33:00,33.2,21.2,29.94,NNW,347,2.0,6.0,61,0.00,,---,0.00,VWS V14.01,2013-03-02 03:33:00,
2013-03-01 22:38:00,33.1,21.1,29.94,NW,318,3.0,11.0,61,0.00,,---,0.00,VWS V14.01,2013-03-02 03:38:00,
2013-03-01 22:43:00,32.8,21.2,29.94,NNW,331,3.0,11.0,62,0.00,,---,0.00,VWS V14.01,2013-03-02 03:43:00,
2013-03-01 22:48:00,32.8,21.2,29.94,NW,323,1.0,11.0,62,0.00,,---,0.00,VWS V14.01,2013-03-02 03:48:00,
2013-03-01 22:53:00,32.6,21.4,29.94,NNW,333,1.0,11.0,63,0.00,,---,0.00,VWS V14.01,2013-03-02 03:53:00,
2013-03-01 22:58:00,32.5,21.3,29.94,NW,313,1.0,11.0,63,0.00,,---,0.00,VWS V14.01,2013-03-02 03:58:00,
2013-03-01 23:03:00,32.3,21.1,29.94,West,281,5.0,6.0,63,0.00,,---,0.00,VWS V14.01,2013-03-02 04:03:00,
2013-03-01 23:08:00,32.4,21.6,29.94,NW,326,4.0,9.0,64,0.00,,---,0.00,VWS V14.01,2013-03-02 04:08:00,
2013-03-01 23:13:00,32.3,21.5,29.94,NNW,329,0.0,9.0,64,0.00,,---,0.00,VWS V14.01,2013-03-02 04:13:00,
2013-03-01 23:18:00,32.0,21.6,29.94,NNW,329,1.0,9.0,65,0.00,,---,0.00,VWS V14.01,2013-03-02 04:18:00,
2013-03-01 23:23:00,31.9,21.5,29.94,NNW,329,1.0,9.0,65,0.00,,---,0.00,VWS V14.01,2013-03-02 04:23:00,
2013-03-01 23:28:00,31.6,21.2,29.94,North,355,4.0,9.0,65,0.00,,---,0.00,VWS V14.01,2013-03-02 04:28:00,
2013-03-01 23:33:00,31.6,21.6,29.94,NW,321,3.0,5.0,66,0.00,,---,0.00,VWS V14.01,2013-03-02 04:33:00,
2013-03-01 23:38:00,31.6,21.6,29.94,North,355,4.0,6.0,66,0.00,,---,0.00,VWS V14.01,2013-03-02 04:38:00,
2013-03-01 23:43:00,31.7,21.7,29.94,NNW,340,2.0,7.0,66,0.00,,---,0.00,VWS V14.01,2013-03-02 04:43:00,
2013-03-01 23:48:00,31.5,21.8,29.94,NNW,340,0.0,7.0,67,0.00,,---,0.00,VWS V14.01,2013-03-02 04:48:00,
2013-03-01 23:53:00,31.4,21.7,29.93,NNE,24,2.0,7.0,67,0.00,,---,0.00,VWS V14.01,2013-03-02 04:53:00,
2013-03-01 23:58:00,31.4,21.7,29.93,NNW,345,1.0,7.0,67,0.00,,---,0.00,VWS V14.01,2013-03-02 04:58:00,